Tracking 28091 objects as of 29-Sep-2023
HD Live streaming from Space Station
objects crossing your sky now

STARLINK-5820

Track STARLINK-5820 now!
10-day predictions
STARLINK-5820 is classified as:


NORAD ID: 55781
Int'l Code: 2023-028AS
Perigee: 577.1 km
Apogee: 581.4 km
Inclination: 70.0 °
Period: 96.1 minutes
Semi major axis: 6950 km
RCS: Unknown
Launch date: March 3, 2023
Source: United States (US)
Launch site: AIR FORCE WESTERN TEST RANGE (AFWTR)
Your satellite tracking list
Your tracking list is empty




NASA's NSSDC Master Catalog

Two Line Element Set (TLE):
1 55781U 23028AS  23271.53794602  .00000141  00000-0  19621-4 0  9991
2 55781  69.9998 316.5942 0003089 267.7980  92.2825 14.98326893 32744
Source of the keplerian elements: AFSPC